Language: 


Des rapports , des résumés tant et plus, au choix de chacun....


Données statistiques de la station
Quotidien Rapport Aout 31, 2017 Unités:  Métrique    Anglais   les deux
« Précédent Jour
Suivant Jour »
Quotidien Hebdomadaire Mensuel Annuel Actuel
  Haut: Bas: Moyen:
Température: 22.9 °C 11.0 °C 15.9 °C
Pt de rosée: 15.0 °C 10.0 °C 12.7 °C
Humidité: 98 % 48 % 82 %
Vitesse du vent: 19.8 km/h 0.0 km/h 5.6 km/h
Rafales: 21.6 km/h - -
Vent:- - West
Pression: 1019.9 hPa 1012.1 hPa -
Précipitation: 1.5 mm    
Historical Graphs
 
 
Données statistiques pour Aout 31, 2017
Heure Température Point de rosée Pression Vent Vitesse du vent Refales Humidité Pluie (taux horaire)
00:03 13.6 °C 14.0 °C 1012.1 hPa NNW 12.2 km/h 16.9 km/h 98 % 1.8 mm
00:08 13.4 °C 13.0 °C 1012.1 hPa NNE 6.9 km/h 16.9 km/h 98 % 1.8 mm
00:18 13.1 °C 13.0 °C 1012.1 hPa NW 7.9 km/h 15.4 km/h 98 % 2.3 mm
00:23 13.1 °C 13.0 °C 1012.1 hPa NNW 11.9 km/h 19.5 km/h 98 % 2.3 mm
00:28 12.9 °C 13.0 °C 1012.1 hPa NNW 9.3 km/h 19.5 km/h 98 % 2.5 mm
00:33 12.8 °C 13.0 °C 1013.1 hPa West 4.3 km/h 13.7 km/h 98 % 2.5 mm
00:38 12.8 °C 13.0 °C 1013.1 hPa WNW 1.4 km/h 13.7 km/h 98 % 2.3 mm
00:43 12.8 °C 13.0 °C 1013.1 hPa West 1.4 km/h 9.7 km/h 98 % 1.8 mm
00:48 12.8 °C 13.0 °C 1013.1 hPa West 4.7 km/h 5.0 km/h 98 % 1.5 mm
00:53 12.8 °C 13.0 °C 1013.1 hPa WNW 2.6 km/h 11.6 km/h 98 % 1.3 mm
00:58 12.7 °C 13.0 °C 1013.1 hPa WNW 11.1 km/h 14.3 km/h 98 % 1.0 mm
01:03 12.6 °C 13.0 °C 1013.1 hPa West 4.3 km/h 14.3 km/h 98 % 0.8 mm
01:08 12.6 °C 13.0 °C 1013.1 hPa NNE 7.9 km/h 11.1 km/h 98 % 0.3 mm
01:13 12.5 °C 13.0 °C 1013.1 hPa WNW 4.3 km/h 11.9 km/h 98 % 0.3 mm
01:19 12.5 °C 13.0 °C 1013.1 hPa WNW 4.3 km/h 11.9 km/h 98 % 0.3 mm
01:24 12.4 °C 13.0 °C 1013.1 hPa West 4.0 km/h 8.7 km/h 98 % 0.3 mm
01:29 12.4 °C 13.0 °C 1013.1 hPa Calm   7.9 km/h 98 % 0.0 mm
01:34 12.4 °C 13.0 °C 1013.1 hPa West 6.1 km/h 9.7 km/h 98 % 0.0 mm
01:39 12.4 °C 13.0 °C 1013.1 hPa NW 2.6 km/h 9.7 km/h 98 % 0.0 mm
01:44 12.4 °C 13.0 °C 1013.1 hPa Calm   9.3 km/h 98 % 0.0 mm
01:49 12.4 °C 13.0 °C 1013.1 hPa NW 4.3 km/h 6.1 km/h 98 % 0.0 mm
01:54 12.4 °C 13.0 °C 1013.1 hPa Calm   6.4 km/h 98 % 0.0 mm
01:59 12.5 °C 13.0 °C 1013.1 hPa WNW 7.6 km/h 9.3 km/h 98 % 0.0 mm
02:04 12.5 °C 13.0 °C 1013.1 hPa West 4.7 km/h 11.6 km/h 98 % 0.0 mm
02:09 12.5 °C 13.0 °C 1013.1 hPa West 4.7 km/h 11.6 km/h 98 % 0.0 mm
02:14 12.5 °C 13.0 °C 1013.1 hPa West 8.7 km/h 10.1 km/h 98 % 0.0 mm
02:19 12.5 °C 13.0 °C 1013.1 hPa NW 2.1 km/h 9.7 km/h 98 % 0.0 mm
02:24 12.5 °C 13.0 °C 1013.1 hPa North 8.7 km/h 8.7 km/h 98 % 0.3 mm
02:29 12.5 °C 13.0 °C 1013.1 hPa West 9.0 km/h 9.0 km/h 98 % 0.3 mm
02:34 12.5 °C 13.0 °C 1013.1 hPa West 6.4 km/h 11.1 km/h 98 % 0.3 mm
02:39 12.5 °C 13.0 °C 1013.1 hPa WNW 5.5 km/h 11.1 km/h 98 % 0.3 mm
02:44 12.5 °C 13.0 °C 1013.1 hPa West 5.0 km/h 10.5 km/h 98 % 0.3 mm
02:49 12.6 °C 13.0 °C 1013.1 hPa WNW 6.1 km/h 10.5 km/h 98 % 0.3 mm
02:54 12.6 °C 13.0 °C 1013.1 hPa West 4.3 km/h 11.6 km/h 98 % 0.3 mm
02:59 12.6 °C 13.0 °C 1013.1 hPa West 5.5 km/h 11.6 km/h 98 % 0.3 mm
03:04 12.6 °C 13.0 °C 1013.1 hPa West 6.4 km/h 10.5 km/h 98 % 0.3 mm
03:09 12.6 °C 13.0 °C 1013.1 hPa West 5.5 km/h 10.5 km/h 98 % 0.3 mm
03:14 12.6 °C 13.0 °C 1013.1 hPa Calm   5.5 km/h 98 % 0.3 mm
03:19 12.6 °C 13.0 °C 1013.1 hPa West 4.3 km/h 9.0 km/h 98 % 0.3 mm
03:24 12.6 °C 13.0 °C 1013.1 hPa West 1.4 km/h 9.0 km/h 98 % 0.0 mm
03:29 12.6 °C 13.0 °C 1013.1 hPa Calm   9.0 km/h 98 % 0.0 mm
03:34 12.6 °C 13.0 °C 1013.1 hPa NNW 5.0 km/h 9.7 km/h 98 % 0.0 mm
03:39 12.7 °C 13.0 °C 1013.1 hPa WSW 2.1 km/h 9.7 km/h 98 % 0.0 mm
03:44 12.7 °C 13.0 °C 1013.1 hPa WSW 4.3 km/h 9.7 km/h 98 % 0.0 mm
03:49 12.7 °C 13.0 °C 1013.1 hPa West 4.7 km/h 9.7 km/h 98 % 0.0 mm
03:54 12.7 °C 13.0 °C 1013.1 hPa West 6.1 km/h 6.9 km/h 98 % 0.0 mm
03:59 12.7 °C 13.0 °C 1013.1 hPa West 6.9 km/h 6.9 km/h 98 % 0.0 mm
04:04 12.7 °C 13.0 °C 1013.1 hPa West 5.0 km/h 6.9 km/h 98 % 0.0 mm
04:09 12.7 °C 13.0 °C 1013.1 hPa West 9.3 km/h 9.3 km/h 98 % 0.0 mm
04:10 12.7 °C 13.0 °C 1013.1 hPa West 6.4 km/h 9.3 km/h 98 % 0.0 mm
04:15 12.7 °C 13.0 °C 1014.1 hPa West 4.0 km/h 9.3 km/h 98 % 0.0 mm
04:20 12.7 °C 13.0 °C 1014.1 hPa West 5.5 km/h 9.0 km/h 98 % 0.0 mm
04:25 12.7 °C 13.0 °C 1014.1 hPa West 7.9 km/h 9.7 km/h 98 % 0.0 mm
04:30 12.7 °C 13.0 °C 1014.1 hPa West 9.0 km/h 10.5 km/h 98 % 0.0 mm
04:35 12.7 °C 13.0 °C 1014.1 hPa West 4.3 km/h 10.5 km/h 98 % 0.0 mm
04:40 12.6 °C 13.0 °C 1014.1 hPa West 5.0 km/h 9.0 km/h 98 % 0.0 mm
04:50 12.7 °C 13.0 °C 1014.1 hPa West 5.5 km/h 9.7 km/h 98 % 0.3 mm
04:55 12.7 °C 13.0 °C 1014.1 hPa West 11.9 km/h 11.9 km/h 98 % 0.3 mm
05:00 12.7 °C 13.0 °C 1014.1 hPa West 11.6 km/h 13.0 km/h 98 % 0.3 mm
05:05 12.7 °C 13.0 °C 1014.1 hPa Calm   13.0 km/h 98 % 0.3 mm
05:10 12.7 °C 13.0 °C 1014.1 hPa WSW 5.0 km/h 11.6 km/h 98 % 0.3 mm
05:17 12.7 °C 13.0 °C 1014.1 hPa West 7.9 km/h 10.5 km/h 98 % 0.3 mm
05:22 12.6 °C 13.0 °C 1014.1 hPa WSW 2.6 km/h 8.7 km/h 98 % 0.3 mm
05:24 12.6 °C 13.0 °C 1014.1 hPa West 5.0 km/h 10.1 km/h 98 % 0.3 mm
05:27 12.6 °C 13.0 °C 1014.1 hPa WSW 7.9 km/h 10.1 km/h 98 % 0.3 mm
05:32 12.6 °C 13.0 °C 1014.1 hPa WSW 9.7 km/h 12.2 km/h 98 % 0.3 mm
05:37 12.6 °C 13.0 °C 1014.1 hPa West 7.2 km/h 12.2 km/h 98 % 0.3 mm
05:42 12.7 °C 13.0 °C 1014.1 hPa West 4.0 km/h 9.7 km/h 98 % 0.3 mm
05:47 12.7 °C 13.0 °C 1015.1 hPa WSW 6.4 km/h 9.7 km/h 98 % 0.0 mm
05:52 12.7 °C 13.0 °C 1015.1 hPa West 6.1 km/h 9.7 km/h 98 % 0.0 mm
05:57 12.7 °C 13.0 °C 1015.1 hPa West 9.0 km/h 11.9 km/h 98 % 0.0 mm
06:02 12.7 °C 13.0 °C 1014.1 hPa West 5.8 km/h 11.9 km/h 98 % 0.0 mm
06:07 12.7 °C 13.0 °C 1014.1 hPa West 6.4 km/h 11.6 km/h 98 % 0.0 mm
06:12 12.8 °C 13.0 °C 1014.1 hPa West 1.4 km/h 10.5 km/h 98 % 0.0 mm
06:13 12.8 °C 13.0 °C 1014.1 hPa West 9.0 km/h 10.5 km/h 98 % 0.0 mm
06:18 12.7 °C 13.0 °C 1015.1 hPa West 7.9 km/h 10.5 km/h 98 % 0.0 mm
06:23 12.7 °C 13.0 °C 1015.1 hPa West 8.7 km/h 9.3 km/h 98 % 0.0 mm
06:28 12.6 °C 13.0 °C 1015.1 hPa WSW 6.9 km/h 9.3 km/h 98 % 0.0 mm
06:33 12.4 °C 13.0 °C 1015.1 hPa West 6.9 km/h 9.3 km/h 98 % 0.0 mm
06:38 12.3 °C 13.0 °C 1015.1 hPa Calm   9.0 km/h 98 % 0.0 mm
06:43 12.3 °C 13.0 °C 1015.1 hPa WSW 6.9 km/h 7.6 km/h 98 % 0.0 mm
06:49 12.3 °C 13.0 °C 1015.1 hPa Calm   7.2 km/h 98 % 0.0 mm
06:54 12.2 °C 12.0 °C 1015.1 hPa Calm   5.8 km/h 98 % 0.0 mm
06:59 12.1 °C 12.0 °C 1015.1 hPa Calm   7.6 km/h 98 % 0.0 mm
07:04 12.0 °C 12.0 °C 1015.1 hPa Calm   7.6 km/h 98 % 0.0 mm
07:09 11.8 °C 12.0 °C 1015.1 hPa Calm   5.8 km/h 98 % 0.0 mm
07:14 11.8 °C 12.0 °C 1015.1 hPa Calm   5.8 km/h 98 % 0.0 mm
07:19 11.7 °C 12.0 °C 1015.1 hPa Calm   5.8 km/h 98 % 0.0 mm
07:24 11.7 °C 12.0 °C 1015.1 hPa Calm     98 % 0.0 mm
07:29 11.6 °C 12.0 °C 1015.1 hPa West 3.5 km/h 3.5 km/h 98 % 0.0 mm
07:34 11.6 °C 12.0 °C 1015.1 hPa Calm   5.0 km/h 98 % 0.0 mm
07:39 11.5 °C 12.0 °C 1015.1 hPa Calm   5.0 km/h 98 % 0.0 mm
07:44 11.4 °C 11.0 °C 1015.1 hPa Calm     98 % 0.0 mm
07:49 11.5 °C 12.0 °C 1015.1 hPa Calm     98 % 0.0 mm
07:54 11.6 °C 12.0 °C 1015.1 hPa WSW 4.3 km/h 4.3 km/h 98 % 0.0 mm
07:59 11.7 °C 12.0 °C 1015.1 hPa WSW 4.3 km/h 4.3 km/h 98 % 0.0 mm
08:04 11.9 °C 12.0 °C 1015.1 hPa Calm   4.3 km/h 98 % 0.0 mm
08:09 12.1 °C 12.0 °C 1015.1 hPa West 6.9 km/h 6.9 km/h 98 % 0.0 mm
08:14 12.3 °C 13.0 °C 1015.1 hPa West 6.9 km/h 6.9 km/h 98 % 0.0 mm
08:19 12.5 °C 13.0 °C 1016.1 hPa West 6.9 km/h 6.9 km/h 98 % 0.0 mm
08:24 12.5 °C 13.0 °C 1016.1 hPa West 6.9 km/h 6.9 km/h 98 % 0.0 mm
08:29 12.7 °C 13.0 °C 1016.1 hPa West 6.9 km/h 6.9 km/h 98 % 0.0 mm
08:34 12.9 °C 13.0 °C 1016.1 hPa West 6.9 km/h 6.9 km/h 98 % 0.0 mm
08:39 13.1 °C 13.0 °C 1016.1 hPa WSW 8.7 km/h 8.7 km/h 98 % 0.0 mm
08:44 13.2 °C 13.0 °C 1016.1 hPa WSW 8.7 km/h 8.7 km/h 98 % 0.0 mm
08:48 13.3 °C 13.0 °C 1016.1 hPa WSW 12.6 km/h 12.6 km/h 98 % 0.0 mm
08:53 13.5 °C 14.0 °C 1016.1 hPa WSW 9.3 km/h 12.6 km/h 98 % 0.0 mm
08:58 13.7 °C 14.0 °C 1016.1 hPa West 7.6 km/h 12.6 km/h 98 % 0.0 mm
09:03 13.8 °C 14.0 °C 1016.8 hPa WSW 12.6 km/h 12.6 km/h 98 % 0.0 mm
09:08 14.1 °C 14.0 °C 1016.8 hPa WSW 12.6 km/h 12.6 km/h 98 % 0.0 mm
09:13 14.2 °C 14.0 °C 1016.8 hPa WSW 12.6 km/h 12.6 km/h 97 % 0.0 mm
09:18 14.5 °C 14.0 °C 1016.8 hPa WSW 7.6 km/h 12.6 km/h 97 % 0.0 mm
09:23 14.6 °C 14.0 °C 1016.8 hPa WSW 7.6 km/h 12.6 km/h 97 % 0.0 mm
09:28 14.8 °C 14.0 °C 1016.8 hPa West 10.5 km/h 10.5 km/h 96 % 0.0 mm
09:33 14.9 °C 15.0 °C 1018.2 hPa West 10.5 km/h 10.5 km/h 96 % 0.0 mm
09:38 15.2 °C 15.0 °C 1018.2 hPa West 10.5 km/h 10.5 km/h 95 % 0.0 mm
09:43 15.3 °C 15.0 °C 1018.2 hPa West 6.1 km/h 10.5 km/h 95 % 0.0 mm
09:48 15.7 °C 15.0 °C 1016.1 hPa WSW 6.4 km/h 10.5 km/h 95 % 0.0 mm
09:53 15.9 °C 15.0 °C 1016.1 hPa WNW 6.4 km/h 10.1 km/h 95 % 0.0 mm
09:58 16.3 °C 15.0 °C 1016.1 hPa WSW 5.8 km/h 10.1 km/h 94 % 0.0 mm
10:03 16.4 °C 15.0 °C 1016.8 hPa West 1.4 km/h 10.1 km/h 94 % 0.0 mm
10:08 16.6 °C 15.0 °C 1016.8 hPa WSW 6.9 km/h 13.7 km/h 92 % 0.0 mm
10:13 16.8 °C 15.0 °C 1016.8 hPa West 6.4 km/h 13.7 km/h 91 % 0.0 mm
10:19 16.9 °C 15.0 °C 1016.8 hPa WSW 12.6 km/h 12.6 km/h 90 % 0.0 mm
10:24 17.0 °C 15.0 °C 1016.8 hPa WSW 11.9 km/h 12.6 km/h 90 % 0.0 mm
10:29 17.3 °C 15.0 °C 1016.8 hPa Calm   12.6 km/h 87 % 0.0 mm
10:34 17.4 °C 15.0 °C 1016.8 hPa SW 10.5 km/h 12.2 km/h 84 % 0.0 mm
10:39 17.5 °C 15.0 °C 1016.8 hPa West 5.5 km/h 12.2 km/h 84 % 0.0 mm
10:44 17.6 °C 15.0 °C 1016.8 hPa West 10.5 km/h 10.5 km/h 82 % 0.0 mm
10:49 17.6 °C 15.0 °C 1018.2 hPa West 6.9 km/h 11.1 km/h 82 % 0.0 mm
10:54 18.0 °C 14.0 °C 1018.2 hPa West 7.2 km/h 11.1 km/h 78 % 0.0 mm
10:59 18.0 °C 14.0 °C 1018.2 hPa WSW 10.5 km/h 13.0 km/h 78 % 0.0 mm
11:04 18.1 °C 14.0 °C 1018.2 hPa SW 13.0 km/h 13.0 km/h 77 % 0.0 mm
11:09 18.2 °C 13.0 °C 1018.2 hPa West 12.6 km/h 18.3 km/h 73 % 0.0 mm
11:14 18.1 °C 13.0 °C 1018.2 hPa West 6.1 km/h 18.3 km/h 73 % 0.0 mm
11:19 18.0 °C 13.0 °C 1016.8 hPa West 6.9 km/h 16.9 km/h 73 % 0.0 mm
11:24 17.8 °C 13.0 °C 1016.8 hPa West 11.6 km/h 16.9 km/h 75 % 0.0 mm
11:29 17.8 °C 13.0 °C 1016.8 hPa WSW 13.0 km/h 16.6 km/h 75 % 0.0 mm
11:34 17.8 °C 13.0 °C 1018.2 hPa WSW 11.9 km/h 15.8 km/h 75 % 0.0 mm
11:39 17.8 °C 13.0 °C 1018.2 hPa SSW 9.3 km/h 15.8 km/h 75 % 0.0 mm
11:45 18.7 °C 14.0 °C 1018.2 hPa West 12.6 km/h 13.7 km/h 74 % 0.0 mm
11:50 18.6 °C 13.0 °C 1018.2 hPa West 11.6 km/h 13.7 km/h 71 % 0.0 mm
11:55 18.6 °C 13.0 °C 1018.2 hPa WSW 8.7 km/h 13.7 km/h 71 % 0.0 mm
12:00 19.3 °C 14.0 °C 1018.2 hPa WSW 8.7 km/h 14.3 km/h 70 % 0.0 mm
12:05 19.3 °C 14.0 °C 1018.2 hPa WSW 10.1 km/h 14.3 km/h 70 % 0.0 mm
12:10 19.5 °C 14.0 °C 1018.2 hPa West 6.4 km/h 13.0 km/h 68 % 0.0 mm
12:15 20.0 °C 14.0 °C 1018.2 hPa West 6.4 km/h 11.9 km/h 68 % 0.0 mm
12:20 19.9 °C 14.0 °C 1018.2 hPa WSW 13.7 km/h 14.8 km/h 67 % 0.0 mm
12:25 19.8 °C 13.0 °C 1018.2 hPa NNW 5.0 km/h 14.8 km/h 65 % 0.0 mm
12:30 20.2 °C 14.0 °C 1018.2 hPa West 10.1 km/h 14.0 km/h 66 % 0.0 mm
12:35 20.4 °C 14.0 °C 1018.2 hPa West 7.6 km/h 13.7 km/h 65 % 0.0 mm
12:40 20.4 °C 14.0 °C 1018.2 hPa WSW 1.8 km/h 15.8 km/h 65 % 0.0 mm
12:45 20.3 °C 13.0 °C 1018.2 hPa NW 10.1 km/h 15.8 km/h 61 % 0.0 mm
12:50 20.0 °C 12.0 °C 1018.2 hPa West 11.6 km/h 13.0 km/h 59 % 0.0 mm
12:55 20.4 °C 12.0 °C 1018.2 hPa West 9.7 km/h 13.0 km/h 59 % 0.0 mm
13:00 20.7 °C 13.0 °C 1018.2 hPa West 6.9 km/h 13.0 km/h 61 % 0.0 mm
13:05 21.0 °C 13.0 °C 1018.2 hPa SSW 6.1 km/h 11.9 km/h 61 % 0.0 mm
13:10 21.0 °C 13.0 °C 1018.2 hPa WSW 8.7 km/h 12.2 km/h 61 % 0.0 mm
13:15 20.9 °C 13.0 °C 1018.2 hPa West 14.3 km/h 14.3 km/h 58 % 0.0 mm
13:20 20.9 °C 12.0 °C 1018.2 hPa WSW 9.3 km/h 14.3 km/h 57 % 0.0 mm
13:25 20.9 °C 12.0 °C 1018.2 hPa West 11.1 km/h 13.0 km/h 57 % 0.0 mm
13:30 19.9 °C 13.0 °C 1018.2 hPa West 4.7 km/h 13.0 km/h 62 % 0.0 mm
13:35 19.9 °C 13.0 °C 1018.2 hPa West 16.6 km/h 16.6 km/h 62 % 0.0 mm
13:40 20.8 °C 13.0 °C 1018.2 hPa SW 9.3 km/h 16.6 km/h 60 % 0.0 mm
13:45 20.8 °C 13.0 °C 1018.2 hPa SSW 7.6 km/h 16.6 km/h 60 % 0.0 mm
13:50 20.7 °C 13.0 °C 1018.2 hPa West 4.3 km/h 15.4 km/h 59 % 0.0 mm
13:55 20.6 °C 12.0 °C 1018.2 hPa WSW 9.7 km/h 21.6 km/h 56 % 0.0 mm
14:00 20.6 °C 11.0 °C 1018.2 hPa West 12.6 km/h 21.6 km/h 55 % 0.0 mm
14:05 20.5 °C 11.0 °C 1018.2 hPa WSW 9.7 km/h 15.4 km/h 52 % 0.0 mm
14:10 20.5 °C 11.0 °C 1018.2 hPa West 10.5 km/h 17.2 km/h 52 % 0.0 mm
14:15 20.5 °C 11.0 °C 1018.2 hPa West 9.3 km/h 17.7 km/h 52 % 0.0 mm
14:20 21.1 °C 11.0 °C 1018.2 hPa WNW 8.7 km/h 17.7 km/h 53 % 0.0 mm
14:25 20.9 °C 11.0 °C 1018.2 hPa West 9.7 km/h 17.2 km/h 53 % 0.0 mm
14:30 20.7 °C 11.0 °C 1018.2 hPa West 9.0 km/h 15.8 km/h 54 % 0.0 mm
14:35 20.9 °C 12.0 °C 1018.2 hPa West 8.7 km/h 14.0 km/h 55 % 0.0 mm
14:40 20.9 °C 12.0 °C 1018.2 hPa Calm   8.7 km/h 55 % 0.0 mm
14:45 21.7 °C 13.0 °C 1018.2 hPa WSW 4.3 km/h 15.8 km/h 58 % 0.0 mm
14:50 21.9 °C 13.0 °C 1018.2 hPa WSW 10.8 km/h 17.7 km/h 57 % 0.0 mm
14:55 21.9 °C 13.0 °C 1018.2 hPa WSW 10.1 km/h 17.7 km/h 57 % 0.0 mm
15:00 21.9 °C 13.0 °C 1018.2 hPa SSW 11.9 km/h 13.0 km/h 57 % 0.0 mm
15:05 21.9 °C 13.0 °C 1018.2 hPa South 7.6 km/h 13.7 km/h 57 % 0.0 mm
15:11 22.9 °C 13.0 °C 1018.2 hPa WSW 6.9 km/h 13.7 km/h 53 % 0.0 mm
15:16 22.9 °C 13.0 °C 1018.2 hPa South 6.1 km/h 15.8 km/h 53 % 0.0 mm
15:21 21.6 °C 11.0 °C 1018.2 hPa SW 7.9 km/h 17.2 km/h 51 % 0.0 mm
15:26 21.4 °C 11.0 °C 1018.2 hPa South 13.0 km/h 17.2 km/h 51 % 0.0 mm
15:31 21.4 °C 11.0 °C 1018.2 hPa SW 15.4 km/h 16.3 km/h 51 % 0.0 mm
15:36 21.5 °C 11.0 °C 1018.2 hPa West 11.9 km/h 19.8 km/h 49 % 0.0 mm
15:41 21.5 °C 11.0 °C 1018.2 hPa West 19.8 km/h 21.2 km/h 49 % 0.0 mm
15:46 21.5 °C 11.0 °C 1018.2 hPa WSW 9.3 km/h 21.2 km/h 49 % 0.0 mm
15:51 21.5 °C 11.0 °C 1018.2 hPa West 13.0 km/h 19.8 km/h 49 % 0.0 mm
15:56 21.3 °C 10.0 °C 1018.2 hPa WSW 11.6 km/h 19.8 km/h 48 % 0.0 mm
16:01 21.7 °C 12.0 °C 1018.2 hPa West 13.0 km/h 17.2 km/h 53 % 0.0 mm
16:06 21.7 °C 12.0 °C 1018.2 hPa West 13.0 km/h 21.2 km/h 53 % 0.0 mm
16:11 21.8 °C 13.0 °C 1018.2 hPa North 9.0 km/h 21.2 km/h 59 % 0.0 mm
16:16 21.7 °C 14.0 °C 1018.2 hPa NNW 8.7 km/h 11.6 km/h 60 % 0.0 mm
16:21 21.7 °C 14.0 °C 1018.2 hPa SSW 9.7 km/h 10.5 km/h 60 % 0.0 mm
16:26 20.6 °C 13.0 °C 1018.2 hPa East 7.9 km/h 15.8 km/h 61 % 0.0 mm
16:31 20.5 °C 13.0 °C 1018.2 hPa WNW 9.3 km/h 15.8 km/h 61 % 0.0 mm
16:36 20.5 °C 13.0 °C 1018.2 hPa WNW 9.7 km/h 11.6 km/h 62 % 0.0 mm
16:41 20.5 °C 13.0 °C 1018.2 hPa West 13.7 km/h 13.7 km/h 62 % 0.0 mm
16:46 20.5 °C 13.0 °C 1018.2 hPa WNW 6.1 km/h 13.7 km/h 62 % 0.0 mm
16:51 20.5 °C 13.0 °C 1018.2 hPa WNW 5.0 km/h 13.7 km/h 62 % 0.0 mm
16:56 20.5 °C 13.0 °C 1018.2 hPa NW 9.0 km/h 11.6 km/h 62 % 0.0 mm
17:01 20.5 °C 13.0 °C 1018.2 hPa West 10.5 km/h 12.2 km/h 62 % 0.0 mm
17:06 20.5 °C 13.0 °C 1018.2 hPa West 13.0 km/h 13.0 km/h 62 % 0.0 mm
17:11 19.4 °C 12.0 °C 1018.2 hPa West 5.5 km/h 16.6 km/h 60 % 0.0 mm
17:17 19.0 °C 11.0 °C 1018.2 hPa WSW 10.1 km/h 16.6 km/h 61 % 0.0 mm
17:22 18.9 °C 12.0 °C 1018.2 hPa West 12.2 km/h 16.6 km/h 63 % 0.0 mm
17:27 18.8 °C 12.0 °C 1018.2 hPa West 7.9 km/h 16.6 km/h 63 % 0.0 mm
17:32 18.8 °C 12.0 °C 1018.2 hPa West 6.9 km/h 14.0 km/h 63 % 0.0 mm
17:37 18.8 °C 12.0 °C 1018.2 hPa WNW 5.0 km/h 13.0 km/h 63 % 0.0 mm
17:42 18.4 °C 12.0 °C 1018.2 hPa West 6.9 km/h 10.1 km/h 67 % 0.0 mm
17:47 18.4 °C 12.0 °C 1018.8 hPa West 9.7 km/h 10.5 km/h 67 % 0.0 mm
17:52 18.4 °C 12.0 °C 1018.8 hPa WSW 4.3 km/h 10.5 km/h 67 % 0.0 mm
17:57 18.4 °C 12.0 °C 1018.8 hPa Calm   7.6 km/h 67 % 0.0 mm
18:02 20.4 °C 14.0 °C 1018.8 hPa West 5.5 km/h 10.1 km/h 66 % 0.0 mm
18:07 20.4 °C 14.0 °C 1018.8 hPa West 5.5 km/h 10.1 km/h 66 % 0.0 mm
18:12 20.0 °C 13.0 °C 1018.8 hPa SSW 9.3 km/h 11.9 km/h 64 % 0.0 mm
18:17 20.0 °C 13.0 °C 1018.8 hPa WSW 10.1 km/h 12.2 km/h 64 % 0.0 mm
18:22 20.2 °C 13.0 °C 1018.8 hPa WSW 4.0 km/h 12.2 km/h 64 % 0.0 mm
18:27 20.3 °C 13.0 °C 1018.8 hPa WSW 4.0 km/h 10.5 km/h 64 % 0.0 mm
18:32 20.3 °C 13.0 °C 1018.2 hPa WSW 6.1 km/h 10.5 km/h 64 % 0.0 mm
18:37 20.3 °C 13.0 °C 1018.2 hPa WSW 5.8 km/h 10.5 km/h 64 % 0.0 mm
18:42 19.4 °C 13.0 °C 1018.2 hPa WSW 6.1 km/h 10.1 km/h 66 % 0.0 mm
18:47 19.2 °C 13.0 °C 1018.8 hPa WSW 5.8 km/h 9.0 km/h 66 % 0.0 mm
18:52 18.8 °C 13.0 °C 1018.8 hPa Calm   9.0 km/h 69 % 0.0 mm
18:57 18.8 °C 13.0 °C 1018.8 hPa West 5.8 km/h 6.1 km/h 69 % 0.0 mm
19:02 19.1 °C 13.0 °C 1018.8 hPa West 2.1 km/h 10.1 km/h 68 % 0.0 mm
19:07 19.1 °C 13.0 °C 1018.8 hPa Calm   10.1 km/h 68 % 0.0 mm
19:13 19.1 °C 13.0 °C 1018.8 hPa West 2.1 km/h 7.6 km/h 68 % 0.0 mm
19:18 19.5 °C 13.0 °C 1018.8 hPa Calm   8.7 km/h 67 % 0.0 mm
19:23 19.2 °C 13.0 °C 1018.8 hPa WSW 3.2 km/h 8.7 km/h 67 % 0.0 mm
19:28 19.2 °C 13.0 °C 1018.8 hPa Calm   6.9 km/h 67 % 0.0 mm
19:33 19.2 °C 13.0 °C 1018.8 hPa Calm   6.9 km/h 67 % 0.0 mm
19:38 18.6 °C 13.0 °C 1018.8 hPa Calm   2.6 km/h 69 % 0.0 mm
19:43 18.6 °C 13.0 °C 1018.8 hPa Calm   5.5 km/h 69 % 0.0 mm
19:44 18.6 °C 13.0 °C 1018.8 hPa Calm   5.5 km/h 69 % 0.0 mm
19:49 18.6 °C 13.0 °C 1018.8 hPa Calm   5.5 km/h 69 % 0.0 mm
19:54 18.6 °C 13.0 °C 1018.8 hPa Calm   1.4 km/h 69 % 0.0 mm
19:59 17.7 °C 13.0 °C 1018.8 hPa Calm     72 % 0.0 mm
20:04 17.7 °C 13.0 °C 1018.8 hPa Calm     72 % 0.0 mm
20:10 17.7 °C 13.0 °C 1018.8 hPa Calm     72 % 0.0 mm
20:15 17.1 °C 13.0 °C 1019.9 hPa Calm     74 % 0.0 mm
20:20 17.1 °C 13.0 °C 1019.9 hPa Calm     74 % 0.0 mm
20:25 16.9 °C 13.0 °C 1019.9 hPa Calm     76 % 0.0 mm
20:30 16.9 °C 13.0 °C 1018.8 hPa Calm     76 % 0.0 mm
20:35 16.6 °C 13.0 °C 1018.8 hPa Calm     78 % 0.0 mm
20:40 16.4 °C 13.0 °C 1018.8 hPa Calm     78 % 0.0 mm
20:45 16.4 °C 13.0 °C 1018.2 hPa Calm     78 % 0.0 mm
20:50 16.4 °C 13.0 °C 1018.2 hPa WSW 5.8 km/h 5.8 km/h 78 % 0.0 mm
20:55 15.8 °C 13.0 °C 1018.2 hPa Calm   5.8 km/h 80 % 0.0 mm
21:00 15.8 °C 13.0 °C 1018.8 hPa Calm   7.6 km/h 80 % 0.0 mm
21:05 15.8 °C 13.0 °C 1018.8 hPa Calm   7.6 km/h 80 % 0.0 mm
21:10 15.8 °C 13.0 °C 1018.8 hPa Calm   3.2 km/h 80 % 0.0 mm
21:15 15.8 °C 13.0 °C 1018.8 hPa Calm     80 % 0.0 mm
21:20 15.8 °C 13.0 °C 1018.8 hPa Calm     80 % 0.0 mm
21:25 14.8 °C 12.0 °C 1018.8 hPa Calm     82 % 0.0 mm
21:30 14.8 °C 12.0 °C 1018.8 hPa Calm     82 % 0.0 mm
21:35 14.8 °C 12.0 °C 1018.8 hPa Calm     82 % 0.0 mm
21:40 14.2 °C 12.0 °C 1018.8 hPa Calm     83 % 0.0 mm
21:45 14.2 °C 12.0 °C 1018.8 hPa Calm     83 % 0.0 mm
21:50 14.2 °C 12.0 °C 1018.8 hPa Calm     83 % 0.0 mm
21:55 13.4 °C 11.0 °C 1018.8 hPa Calm     84 % 0.0 mm
22:00 13.2 °C 11.0 °C 1018.8 hPa Calm     84 % 0.0 mm
22:05 13.2 °C 11.0 °C 1018.8 hPa Calm     84 % 0.0 mm
22:10 13.2 °C 11.0 °C 1018.8 hPa Calm     84 % 0.0 mm
22:15 13.2 °C 11.0 °C 1018.8 hPa Calm     84 % 0.0 mm
22:20 13.2 °C 11.0 °C 1018.8 hPa Calm     84 % 0.0 mm
22:25 13.2 °C 11.0 °C 1018.8 hPa Calm     84 % 0.0 mm
22:31 12.2 °C 10.0 °C 1019.9 hPa Calm     87 % 0.0 mm
22:36 11.9 °C 10.0 °C 1019.9 hPa Calm     88 % 0.0 mm
22:41 11.9 °C 10.0 °C 1019.9 hPa Calm     88 % 0.0 mm
22:46 11.8 °C 10.0 °C 1019.9 hPa Calm     89 % 0.0 mm
22:51 11.8 °C 10.0 °C 1019.9 hPa Calm     89 % 0.0 mm
22:56 11.8 °C 10.0 °C 1019.9 hPa Calm     89 % 0.0 mm
23:01 11.8 °C 10.0 °C 1019.9 hPa Calm     89 % 0.0 mm
23:06 11.8 °C 10.0 °C 1019.9 hPa Calm     89 % 0.0 mm
23:11 11.4 °C 10.0 °C 1019.9 hPa Calm     91 % 0.0 mm
23:16 11.4 °C 10.0 °C 1019.9 hPa Calm     91 % 0.0 mm
23:21 11.4 °C 10.0 °C 1019.9 hPa Calm     91 % 0.0 mm
23:26 11.4 °C 10.0 °C 1019.9 hPa Calm     91 % 0.0 mm
23:31 11.4 °C 10.0 °C 1019.9 hPa Calm     91 % 0.0 mm
23:36 11.2 °C 10.0 °C 1019.9 hPa Calm     93 % 0.0 mm
23:41 11.2 °C 10.0 °C 1019.9 hPa Calm     93 % 0.0 mm
23:46 11.0 °C 10.0 °C 1019.9 hPa Calm     93 % 0.0 mm
23:51 11.0 °C 10.0 °C 1019.9 hPa Calm     93 % 0.0 mm
23:56 11.0 °C 10.0 °C 1019.9 hPa Calm     93 % 0.0 mm
Le Gheer Warneton
Courtoisie de Weather Underground - 2.25 mb

Mise a jour : 18/12/2017 21:27:11
Généré par Cumulus 1.9.4 (1099)